QPF
0.03 0.01 0.01 0.00 0.00 0.00 0.00 0.00 0.00 0.00 0.01 0.00 0.00 0.00 0.00 0.00 0.00 0.00 0.00 0.00 0.00 0.00 0.00 0.00 0.00 0.00 0.00 0.00 0.00 0.00 0.00 0.00 0.00 0.00 0.00 0.01 0.00 0.00 0.00 0.00 0.00 0.01 0.01 0.01
0.01 0.00 0.00 0.00 0.00 0.00 0.00 0.00 0.00 0.00 0.00 0.00 0.00 0.00 0.00 0.00 0.00 0.00 0.00 0.00 0.00 0.00 0.00 0.00 0.00 0.00 0.00 0.00 0.00 0.00 0.00 0.00 0.00 0.00 0.00 0.00 0.00 0.00 0.00 0.01 0.01 0.01 0.02 0.02
0.01 0.01 0.00 0.00 0.00 0.00 0.00 0.00 0.00 0.00 0.00 0.00 0.00 0.00 0.00 0.00 0.00 0.00 0.00 0.00 0.00 0.00 0.00 0.00 0.00 0.00 0.00 0.00 0.00 0.00 0.00 0.00 0.00 0.00 0.00 0.00 0.00 0.00 0.01 0.01 0.01 0.02 0.02 0.03
0.01 0.01 0.02 0.01 0.00 0.00 0.00 0.00 0.00 0.00 0.00 0.00 0.00 0.00 0.00 0.00 0.00 0.00 0.00 0.00 0.00 0.00 0.00 0.00 0.00 0.00 0.00 0.00 0.00 0.00 0.00 0.00 0.00 0.00 0.00 0.00 0.00 0.01 0.01 0.02 0.02 0.03 0.03 0.03
0.01 0.03 0.03 0.02 0.01 0.00 0.00 0.00 0.00 0.00 0.00 0.00 0.00 0.00 0.00 0.00 0.00 0.00 0.00 0.00 0.00 0.00 0.00 0.00 0.00 0.00 0.00 0.00 0.00 0.00 0.00 0.00 0.00 0.00 0.00 0.00 0.00 0.01 0.01 0.02 0.02 0.02 0.03 0.03
0.02 0.07 0.04 0.03 0.02 0.01 0.00 0.00 0.00 0.00 0.00 0.00 0.00 0.00 0.00 0.00 0.00 0.00 0.00 0.00 0.00 0.00 0.00 0.00 0.00 0.00 0.00 0.00 0.00 0.00 0.00 0.00 0.00 0.00 0.00 0.00 0.01 0.01 0.01 0.02 0.02 0.02 0.02 0.03
0.02 0.04 0.02 0.02 0.01 0.01 0.01 0.01 0.00 0.00 0.00 0.00 0.00 0.00 0.00 0.00 0.00 0.00 0.00 0.00 0.00 0.00 0.00 0.00 0.00 0.00 0.00 0.00 0.00 0.00 0.00 0.00 0.00 0.01 0.01 0.01 0.01 0.02 0.02 0.02 0.03 0.03 0.03 0.03
0.02 0.04 0.04 0.04 0.02 0.01 0.02 0.02 0.01 0.00 0.00 0.00 0.00 0.00 0.00 0.00 0.00 0.00 0.00 0.00 0.00 0.00 0.00 0.00 0.00 0.00 0.00 0.00 0.00 0.00 0.00 0.00 0.01 0.01 0.01 0.01 0.01 0.02 0.03 0.03 0.03 0.04 0.04 0.03
0.06 0.07 0.05 0.04 0.03 0.04 0.04 0.01 0.00 0.00 0.00 0.00 0.00 0.00 0.00 0.00 0.00 0.00 0.00 0.00 0.00 0.00 0.00 0.00 0.00 0.00 0.00 0.00 0.00 0.00 0.00 0.00 0.01 0.01 0.02 0.02 0.02 0.02 0.03 0.04 0.03 0.03 0.02 0.02
0.04 0.08 0.10 0.07 0.03 0.01 0.01 0.00 0.00 0.00 0.00 0.00 0.00 0.00 0.00 0.00 0.00 0.00 0.00 0.00 0.00 0.00 0.00 0.00 0.00 0.00 0.00 0.00 0.00 0.00 0.00 0.00 0.00 0.01 0.01 0.01 0.01 0.01 0.02 0.03 0.03 0.02 0.02 0.02
0.02 0.03 0.06 0.06 0.03 0.01 0.00 0.00 0.00 0.00 0.00 0.00 0.00 0.00 0.00 0.00 0.00 0.00 0.00 0.00 0.00 0.00 0.00 0.00 0.00 0.00 0.00 0.00 0.00 0.00 0.00 0.00 0.00 0.00 0.00 0.01 0.01 0.01 0.01 0.02 0.01 0.00 0.00 0.01
0.03 0.02 0.02 0.07 0.05 0.01 0.01 0.00 0.00 0.00 0.00 0.00 0.00 0.00 0.00 0.00 0.00 0.00 0.00 0.00 0.00 0.00 0.00 0.00 0.00 0.00 0.00 0.00 0.00 0.00 0.00 0.01 0.00 0.00 0.00 0.00 0.00 0.01 0.01 0.01 0.00 0.00 0.00 0.00
0.01 0.01 0.01 0.01 0.01 0.01 0.00 0.00 0.00 0.00 0.00 0.00 0.00 0.00 0.00 0.00 0.00 0.00 0.00 0.00 0.00 0.00 0.00 0.00 0.00 0.00 0.00 0.00 0.00 0.00 0.00 0.01 0.00 0.00 0.00 0.00 0.00 0.01 0.02 0.03 0.02 0.01 0.00 0.00
0.00 0.00 0.00 0.00 0.00 0.00 0.00 0.00 0.00 0.00 0.00 0.00 0.00 0.00 0.00 0.00 0.00 0.00 0.00 0.00 0.00 0.00 0.00 0.00 0.00 0.00 0.00 0.00 0.00 0.00 0.00 0.00 0.00 0.00 0.00 0.00 0.00 0.01 0.02 0.04 0.05 0.04 0.02 0.01
0.00 0.00 0.00 0.00 0.00 0.00 0.00 0.00 0.00 0.00 0.00 0.00 0.00 0.00 0.00 0.00 0.00 0.00 0.00 0.00 0.00 0.00 0.00 0.00 0.00 0.00 0.00 0.00 0.00 0.00 0.00 0.00 0.00 0.00 0.00 0.00 0.00 0.01 0.01 0.03 0.04 0.04 0.04 0.03
0.00 0.00 0.00 0.00 0.00 0.00 0.00 0.01 0.01 0.01 0.00 0.00 0.00 0.00 0.00 0.00 0.00 0.00 0.00 0.00 0.00 0.00 0.00 0.00 0.00 0.00 0.00 0.00 0.00 0.00 0.00 0.00 0.00 0.00 0.00 0.00 0.00 0.00 0.01 0.03 0.03 0.03 0.03 0.03
0.00 0.00 0.00 0.00 0.01 0.01 0.01 0.01 0.01 0.01 0.00 0.00 0.00 0.00 0.00 0.00 0.00 0.00 0.00 0.00 0.00 0.00 0.00 0.00 0.00 0.00 0.00 0.00 0.00 0.00 0.00 0.00 0.01 0.00 0.00 0.00 0.01 0.01 0.01 0.03 0.03 0.03 0.03 0.02
0.01 0.01 0.01 0.01 0.01 0.01 0.01 0.00 0.01 0.01 0.01 0.01 0.00 0.00 0.00 0.00 0.00 0.00 0.00 0.00 0.00 0.00 0.00 0.00 0.00 0.00 0.00 0.01 0.01 0.01 0.01 0.00 0.01 0.01 0.01 0.00 0.00 0.01 0.02 0.02 0.02 0.02 0.02 0.02
0.01 0.01 0.00 0.00 0.00 0.00 0.00 0.01 0.01 0.01 0.01 0.01 0.01 0.00 0.00 0.00 0.00 0.00 0.00 0.01 0.01 0.01 0.01 0.01 0.01 0.00 0.00 0.01 0.01 0.01 0.01 0.01 0.01 0.01 0.01 0.01 0.01 0.01 0.02 0.01 0.02 0.03 0.02 0.02
0.01 0.00 0.00 0.00 0.00 0.00 0.00 0.00 0.00 0.01 0.01 0.00 0.00 0.00 0.00 0.00 0.00 0.00 0.01 0.01 0.02 0.02 0.01 0.01 0.00 0.00 0.00 0.01 0.01 0.00 0.01 0.01 0.01 0.02 0.02 0.02 0.01 0.01 0.01 0.01 0.02 0.02 0.02 0.03
0.00 0.00 0.00 0.00 0.00 0.00 0.00 0.00 0.00 0.00 0.00 0.00 0.00 0.00 0.00 0.01 0.01 0.01 0.02 0.02 0.02 0.01 0.00 0.00 0.00 0.00 0.00 0.01 0.01 0.00 0.00 0.01 0.01 0.01 0.02 0.02 0.01 0.01 0.01 0.02 0.02 0.02 0.03 0.03
0.00 0.00 0.00 0.00 0.00 0.00 0.00 0.00 0.00 0.00 0.00 0.00 0.00 0.00 0.00 0.00 0.00 0.00 0.01 0.01 0.01 0.01 0.00 0.00 0.00 0.00 0.00 0.01 0.00 0.00 0.00 0.00 0.01 0.01 0.02 0.03 0.02 0.02 0.02 0.02 0.03 0.03 0.03 0.04
0.00 0.00 0.00 0.00 0.00 0.00 0.00 0.00 0.00 0.00 0.00 0.00 0.00 0.00 0.00 0.00 0.00 0.00 0.01 0.01 0.00 0.01 0.00 0.00 0.00 0.00 0.00 0.00 0.00 0.00 0.00 0.01 0.01 0.02 0.03 0.03 0.02 0.03 0.03 0.02 0.03 0.03 0.03 0.04
0.00 0.00 0.00 0.00 0.00 0.00 0.00 0.00 0.00 0.00 0.00 0.00 0.00 0.00 0.00 0.00 0.00 0.00 0.00 0.00 0.00 0.00 0.00 0.00 0.00 0.00 0.00 0.00 0.00 0.00 0.00 0.01 0.01 0.02 0.03 0.02 0.02 0.02 0.02 0.02 0.03 0.03 0.03 0.03
0.00 0.00 0.00 0.00 0.00 0.00 0.00 0.00 0.00 0.00 0.00 0.00 0.00 0.00 0.00 0.00 0.00 0.00 0.00 0.00 0.00 0.00 0.00 0.00 0.00 0.00 0.00 0.00 0.00 0.00 0.01 0.01 0.02 0.02 0.03 0.03 0.03 0.03 0.03 0.03 0.04 0.04 0.04 0.04
0.00 0.00 0.00 0.00 0.00 0.00 0.00 0.00 0.00 0.00 0.00 0.00 0.00 0.00 0.00 0.00 0.00 0.00 0.00 0.00 0.00 0.00 0.00 0.01 0.01 0.00 0.00 0.00 0.00 0.00 0.01 0.02 0.02 0.03 0.04 0.04 0.04 0.04 0.05 0.05 0.04 0.03 0.03 0.03
0.00 0.00 0.00 0.00 0.00 0.00 0.00 0.00 0.00 0.00 0.00 0.00 0.00 0.00 0.00 0.00 0.00 0.00 0.00 0.00 0.01 0.00 0.01 0.01 0.01 0.01 0.01 0.01 0.01 0.01 0.01 0.02 0.02 0.03 0.04 0.04 0.04 0.05 0.05 0.06 0.05 0.04 0.04 0.03
MSLP
1010.13 1010.19 1010.09 1009.88 1009.62 1009.35 1009.11 1008.93 1008.82 1008.77 1008.79 1008.87 1008.99 1009.17 1009.39 1009.67 1010.00 1010.38 1010.82 1011.29 1011.78 1012.28 1012.75 1013.18 1013.56 1013.87 1014.13 1014.31 1014.43 1014.50 1014.52 1014.49 1014.43 1014.34 1014.22 1014.08 1013.93 1013.78 1013.63 1013.49 1013.35 1013.22 1013.10 1012.99
1010.17 1010.25 1010.12 1009.83 1009.45 1009.04 1008.67 1008.39 1008.22 1008.18 1008.26 1008.44 1008.70 1009.02 1009.37 1009.74 1010.11 1010.50 1010.89 1011.29 1011.70 1012.12 1012.53 1012.94 1013.32 1013.67 1013.97 1014.21 1014.39 1014.49 1014.53 1014.50 1014.41 1014.28 1014.12 1013.93 1013.74 1013.55 1013.38 1013.22 1013.08 1012.96 1012.85 1012.75
1010.06 1010.16 1010.02 1009.69 1009.23 1008.73 1008.27 1007.91 1007.70 1007.66 1007.79 1008.06 1008.43 1008.87 1009.33 1009.78 1010.21 1010.60 1010.96 1011.30 1011.63 1011.97 1012.32 1012.68 1013.05 1013.41 1013.74 1014.02 1014.23 1014.37 1014.42 1014.39 1014.29 1014.13 1013.93 1013.70 1013.48 1013.26 1013.07 1012.90 1012.76 1012.65 1012.55 1012.46
1009.86 1009.96 1009.82 1009.46 1008.96 1008.40 1007.88 1007.47 1007.22 1007.18 1007.34 1007.68 1008.14 1008.68 1009.24 1009.77 1010.25 1010.66 1011.01 1011.30 1011.58 1011.85 1012.14 1012.46 1012.79 1013.14 1013.47 1013.76 1014.00 1014.15 1014.21 1014.18 1014.07 1013.89 1013.66 1013.42 1013.17 1012.93 1012.73 1012.56 1012.42 1012.31 1012.22 1012.15
1009.62 1009.72 1009.57 1009.19 1008.66 1008.06 1007.49 1007.03 1006.76 1006.71 1006.88 1007.26 1007.79 1008.41 1009.06 1009.67 1010.22 1010.67 1011.03 1011.32 1011.56 1011.79 1012.02 1012.29 1012.58 1012.89 1013.21 1013.49 1013.72 1013.88 1013.94 1013.91 1013.79 1013.60 1013.36 1013.10 1012.84 1012.60 1012.40 1012.22 1012.09 1011.99 1011.91 1011.85
1009.39 1009.47 1009.30 1008.91 1008.35 1007.71 1007.10 1006.60 1006.29 1006.22 1006.39 1006.79 1007.36 1008.05 1008.77 1009.47 1010.08 1010.60 1011.00 1011.31 1011.55 1011.76 1011.96 1012.18 1012.43 1012.70 1012.98 1013.24 1013.46 1013.60 1013.66 1013.62 1013.50 1013.31 1013.07 1012.81 1012.55 1012.31 1012.10 1011.93 1011.81 1011.71 1011.64 1011.58
1009.19 1009.23 1009.04 1008.63 1008.05 1007.38 1006.73 1006.18 1005.83 1005.72 1005.86 1006.26 1006.85 1007.58 1008.36 1009.13 1009.83 1010.42 1010.89 1011.24 1011.51 1011.73 1011.92 1012.12 1012.33 1012.57 1012.81 1013.04 1013.23 1013.35 1013.40 1013.36 1013.24 1013.06 1012.82 1012.56 1012.30 1012.06 1011.85 1011.69 1011.57 1011.48 1011.42 1011.36
1009.00 1009.01 1008.80 1008.36 1007.76 1007.07 1006.38 1005.79 1005.38 1005.22 1005.32 1005.68 1006.27 1007.01 1007.83 1008.65 1009.42 1010.09 1010.64 1011.06 1011.38 1011.63 1011.84 1012.03 1012.23 1012.44 1012.66 1012.86 1013.02 1013.14 1013.17 1013.13 1013.01 1012.83 1012.60 1012.34 1012.08 1011.85 1011.64 1011.48 1011.36 1011.28 1011.23 1011.18
1008.81 1008.79 1008.56 1008.12 1007.50 1006.79 1006.07 1005.43 1004.97 1004.75 1004.79 1005.09 1005.64 1006.36 1007.19 1008.05 1008.87 1009.61 1010.23 1010.73 1011.12 1011.42 1011.66 1011.88 1012.08 1012.28 1012.48 1012.67 1012.82 1012.92 1012.95 1012.91 1012.79 1012.61 1012.38 1012.12 1011.87 1011.63 1011.43 1011.27 1011.16 1011.09 1011.04 1011.01
1008.59 1008.57 1008.33 1007.89 1007.27 1006.55 1005.82 1005.15 1004.64 1004.35 1004.32 1004.55 1005.04 1005.71 1006.51 1007.37 1008.21 1008.99 1009.67 1010.24 1010.69 1011.05 1011.34 1011.58 1011.81 1012.02 1012.22 1012.40 1012.55 1012.64 1012.68 1012.63 1012.52 1012.34 1012.12 1011.86 1011.61 1011.37 1011.17 1011.01 1010.90 1010.84 1010.82 1010.81
1008.36 1008.34 1008.11 1007.69 1007.10 1006.39 1005.66 1004.98 1004.44 1004.09 1003.99 1004.14 1004.54 1005.14 1005.88 1006.69 1007.51 1008.30 1009.00 1009.61 1010.11 1010.52 1010.85 1011.14 1011.39 1011.62 1011.83 1012.02 1012.17 1012.27 1012.30 1012.26 1012.15 1011.98 1011.76 1011.50 1011.25 1011.01 1010.81 1010.66 1010.56 1010.52 1010.52 1010.54
1008.15 1008.13 1007.93 1007.55 1007.00 1006.35 1005.65 1004.98 1004.43 1004.04 1003.88 1003.94 1004.24 1004.74 1005.38 1006.12 1006.88 1007.63 1008.31 1008.92 1009.44 1009.87 1010.24 1010.55 1010.83 1011.08 1011.30 1011.50 1011.65 1011.75 1011.79 1011.76 1011.65 1011.48 1011.26 1011.02 1010.76 1010.53 1010.33 1010.19 1010.11 1010.09 1010.12 1010.17
1007.99 1008.00 1007.84 1007.52 1007.04 1006.45 1005.82 1005.20 1004.66 1004.26 1004.05 1004.03 1004.23 1004.61 1005.14 1005.75 1006.42 1007.08 1007.71 1008.28 1008.78 1009.21 1009.57 1009.89 1010.18 1010.44 1010.67 1010.86 1011.02 1011.12 1011.16 1011.13 1011.03 1010.86 1010.65 1010.40 1010.16 1009.94 1009.75 1009.63 1009.57 1009.57 1009.62 1009.71
1007.94 1007.98 1007.88 1007.63 1007.24 1006.75 1006.21 1005.66 1005.17 1004.78 1004.53 1004.46 1004.56 1004.81 1005.20 1005.68 1006.21 1006.76 1007.29 1007.78 1008.21 1008.60 1008.94 1009.24 1009.51 1009.76 1009.97 1010.16 1010.31 1010.40 1010.44 1010.40 1010.30 1010.14 1009.94 1009.70 1009.47 1009.26 1009.09 1008.98 1008.94 1008.96 1009.04 1009.15
1008.05 1008.12 1008.08 1007.91 1007.63 1007.26 1006.82 1006.37 1005.94 1005.58 1005.33 1005.20 1005.21 1005.34 1005.59 1005.92 1006.30 1006.70 1007.10 1007.48 1007.82 1008.13 1008.41 1008.67 1008.89 1009.11 1009.30 1009.46 1009.58 1009.66 1009.68 1009.64 1009.54 1009.38 1009.18 1008.96 1008.74 1008.54 1008.38 1008.29 1008.26 1008.29 1008.38 1008.50
1008.32 1008.43 1008.44 1008.37 1008.19 1007.94 1007.62 1007.27 1006.92 1006.61 1006.36 1006.19 1006.12 1006.14 1006.25 1006.42 1006.64 1006.88 1007.14 1007.38 1007.61 1007.83 1008.03 1008.21 1008.38 1008.54 1008.68 1008.80 1008.89 1008.94 1008.94 1008.88 1008.77 1008.61 1008.42 1008.21 1007.99 1007.81 1007.66 1007.57 1007.54 1007.57 1007.66 1007.77
1008.73 1008.86 1008.94 1008.94 1008.87 1008.72 1008.52 1008.27 1008.00 1007.74 1007.49 1007.29 1007.15 1007.07 1007.05 1007.07 1007.14 1007.23 1007.34 1007.45 1007.56 1007.67 1007.78 1007.88 1007.98 1008.08 1008.16 1008.23 1008.28 1008.29 1008.25 1008.17 1008.05 1007.88 1007.69 1007.47 1007.27 1007.08 1006.93 1006.84 1006.79 1006.81 1006.87 1006.97
1009.21 1009.36 1009.48 1009.55 1009.57 1009.52 1009.40 1009.24 1009.04 1008.81 1008.58 1008.35 1008.15 1007.98 1007.84 1007.74 1007.67 1007.62 1007.60 1007.59 1007.59 1007.61 1007.63 1007.65 1007.68 1007.71 1007.74 1007.75 1007.74 1007.71 1007.64 1007.53 1007.38 1007.19 1006.98 1006.76 1006.55 1006.35 1006.19 1006.08 1006.01 1006.00 1006.03 1006.09
1009.67 1009.84 1009.99 1010.10 1010.17 1010.19 1010.14 1010.04 1009.88 1009.68 1009.44 1009.19 1008.94 1008.69 1008.46 1008.25 1008.08 1007.93 1007.80 1007.70 1007.62 1007.55 1007.51 1007.47 1007.44 1007.41 1007.38 1007.34 1007.28 1007.19 1007.07 1006.92 1006.74 1006.53 1006.30 1006.06 1005.83 1005.61 1005.43 1005.28 1005.19 1005.13 1005.12 1005.14
1010.05 1010.22 1010.37 1010.51 1010.60 1010.65 1010.63 1010.56 1010.42 1010.22 1009.97 1009.69 1009.40 1009.09 1008.80 1008.52 1008.27 1008.05 1007.86 1007.70 1007.56 1007.45 1007.36 1007.28 1007.21 1007.13 1007.05 1006.96 1006.85 1006.71 1006.54 1006.34 1006.12 1005.87 1005.61 1005.34 1005.08 1004.84 1004.63 1004.45 1004.32 1004.23 1004.18 1004.17
1010.28 1010.44 1010.58 1010.71 1010.80 1010.85 1010.83 1010.76 1010.61 1010.40 1010.13 1009.83 1009.50 1009.16 1008.82 1008.50 1008.21 1007.96 1007.74 1007.55 1007.39 1007.27 1007.15 1007.05 1006.95 1006.84 1006.72 1006.58 1006.42 1006.23 1006.01 1005.76 1005.49 1005.20 1004.90 1004.60 1004.31 1004.04 1003.80 1003.60 1003.44 1003.33 1003.26 1003.23
1010.37 1010.49 1010.61 1010.71 1010.78 1010.80 1010.76 1010.66 1010.49 1010.25 1009.97 1009.64 1009.28 1008.93 1008.57 1008.24 1007.94 1007.68 1007.46 1007.28 1007.13 1007.00 1006.89 1006.77 1006.66 1006.52 1006.36 1006.18 1005.97 1005.72 1005.45 1005.15 1004.83 1004.50 1004.17 1003.84 1003.53 1003.24 1002.99 1002.77 1002.60 1002.49 1002.41 1002.39
1010.33 1010.42 1010.50 1010.56 1010.58 1010.56 1010.49 1010.35 1010.14 1009.88 1009.57 1009.23 1008.87 1008.51 1008.16 1007.83 1007.55 1007.31 1007.11 1006.94 1006.81 1006.69 1006.58 1006.46 1006.32 1006.16 1005.97 1005.74 1005.48 1005.18 1004.86 1004.51 1004.15 1003.78 1003.42 1003.08 1002.76 1002.47 1002.22 1002.02 1001.87 1001.77 1001.72 1001.73
1010.23 1010.28 1010.32 1010.33 1010.31 1010.24 1010.12 1009.94 1009.71 1009.43 1009.10 1008.75 1008.39 1008.03 1007.70 1007.40 1007.14 1006.92 1006.74 1006.60 1006.48 1006.37 1006.25 1006.12 1005.96 1005.77 1005.53 1005.26 1004.94 1004.60 1004.23 1003.84 1003.45 1003.06 1002.69 1002.35 1002.04 1001.78 1001.56 1001.40 1001.29 1001.24 1001.24 1001.30
1010.12 1010.14 1010.14 1010.11 1010.05 1009.94 1009.78 1009.57 1009.31 1009.01 1008.68 1008.33 1007.98 1007.64 1007.33 1007.05 1006.81 1006.61 1006.44 1006.30 1006.18 1006.06 1005.92 1005.76 1005.56 1005.33 1005.05 1004.72 1004.36 1003.97 1003.56 1003.15 1002.75 1002.36 1002.01 1001.69 1001.42 1001.21 1001.05 1000.96 1000.92 1000.93 1001.01 1001.14
1010.07 1010.06 1010.02 1009.96 1009.86 1009.72 1009.53 1009.30 1009.03 1008.72 1008.39 1008.05 1007.72 1007.39 1007.10 1006.83 1006.60 1006.40 1006.23 1006.08 1005.93 1005.77 1005.59 1005.38 1005.13 1004.84 1004.50 1004.13 1003.73 1003.31 1002.88 1002.47 1002.07 1001.71 1001.40 1001.14 1000.94 1000.80 1000.73 1000.72 1000.77 1000.87 1001.03 1001.24
1010.07 1010.04 1009.99 1009.90 1009.78 1009.62 1009.42 1009.17 1008.90 1008.60 1008.28 1007.95 1007.62 1007.31 1007.02 1006.76 1006.52 1006.30 1006.10 1005.90 1005.70 1005.48 1005.24 1004.96 1004.65 1004.30 1003.91 1003.50 1003.07 1002.64 1002.22 1001.82 1001.46 1001.16 1000.91 1000.73 1000.61 1000.57 1000.59 1000.68 1000.83 1001.03 1001.27 1001.56
Thickness
5771 5777 5777 5779 5785 5791 5786 5782 5769 5766 5767 5771 5776 5776 5773 5769 5763 5757 5750 5744 5738 5731 5726 5721 5716 5710 5706 5701 5696 5691 5685 5680 5676 5671 5667 5662 5657 5652 5648 5643 5639 5634 5630 5625
5768 5780 5782 5783 5793 5795 5792 5791 5786 5783 5777 5787 5786 5782 5773 5767 5761 5754 5749 5744 5738 5732 5725 5718 5713 5708 5704 5698 5693 5688 5682 5678 5674 5669 5664 5658 5653 5649 5644 5639 5634 5629 5624 5619
5759 5775 5776 5769 5789 5792 5792 5796 5789 5777 5779 5786 5779 5775 5769 5765 5760 5754 5749 5744 5737 5731 5724 5718 5713 5707 5701 5697 5692 5686 5681 5676 5672 5666 5660 5655 5650 5645 5640 5634 5629 5624 5619 5615
5759 5758 5739 5772 5804 5804 5796 5796 5798 5792 5788 5786 5780 5778 5775 5770 5761 5755 5750 5744 5737 5731 5724 5718 5713 5707 5701 5696 5691 5685 5680 5675 5670 5664 5658 5652 5646 5641 5635 5630 5625 5620 5615 5611
5753 5746 5750 5772 5790 5794 5785 5784 5798 5791 5787 5785 5784 5775 5769 5771 5764 5756 5751 5744 5738 5732 5725 5717 5711 5705 5699 5693 5689 5684 5678 5673 5668 5661 5655 5649 5643 5637 5632 5626 5621 5616 5612 5607
5753 5739 5733 5759 5786 5801 5787 5768 5794 5791 5783 5780 5774 5755 5757 5766 5762 5755 5749 5743 5736 5730 5723 5715 5709 5703 5695 5690 5686 5681 5676 5671 5665 5659 5652 5646 5640 5635 5629 5623 5618 5613 5609 5605
5750 5744 5753 5777 5793 5791 5756 5759 5789 5790 5783 5777 5770 5765 5765 5764 5757 5751 5745 5740 5734 5727 5719 5712 5707 5700 5692 5687 5683 5679 5674 5668 5662 5656 5650 5645 5639 5633 5627 5621 5616 5611 5606 5602
5747 5736 5742 5779 5783 5769 5764 5781 5786 5787 5785 5778 5772 5768 5764 5758 5751 5746 5740 5735 5730 5722 5715 5710 5705 5697 5689 5684 5681 5677 5671 5665 5660 5654 5648 5645 5637 5631 5625 5619 5613 5609 5604 5599
5746 5740 5753 5768 5772 5775 5779 5777 5782 5785 5783 5778 5770 5764 5759 5753 5747 5742 5737 5732 5727 5719 5712 5707 5702 5695 5687 5683 5679 5673 5667 5661 5657 5652 5647 5641 5635 5629 5623 5618 5611 5606 5601 5596
5750 5748 5750 5756 5766 5777 5782 5781 5783 5784 5781 5776 5768 5763 5756 5749 5743 5738 5734 5728 5723 5716 5709 5703 5699 5694 5688 5682 5676 5669 5663 5658 5654 5650 5645 5641 5635 5628 5622 5615 5609 5603 5597 5593
5751 5757 5758 5759 5767 5773 5779 5780 5781 5780 5778 5773 5767 5760 5753 5745 5740 5735 5730 5725 5720 5713 5706 5701 5697 5691 5686 5681 5674 5666 5660 5656 5651 5648 5645 5639 5634 5628 5621 5615 5608 5600 5595 5589
5744 5754 5756 5756 5764 5770 5770 5770 5772 5771 5768 5768 5764 5756 5750 5742 5737 5732 5726 5721 5715 5709 5703 5699 5694 5688 5683 5678 5671 5663 5657 5652 5649 5646 5643 5638 5632 5627 5622 5614 5607 5600 5592 5585
5756 5760 5760 5760 5762 5764 5765 5767 5768 5765 5762 5758 5757 5753 5746 5739 5733 5727 5721 5716 5710 5704 5700 5695 5690 5685 5680 5675 5668 5661 5654 5649 5646 5642 5639 5634 5630 5623 5618 5613 5607 5599 5592 5584
5756 5754 5748 5750 5753 5756 5760 5762 5762 5759 5756 5752 5748 5744 5739 5732 5726 5720 5714 5710 5706 5700 5695 5690 5685 5680 5677 5672 5665 5658 5652 5648 5643 5639 5635 5631 5627 5622 5617 5611 5605 5601 5594 5586
5745 5746 5743 5745 5747 5748 5751 5751 5747 5743 5741 5739 5738 5733 5728 5722 5716 5711 5708 5705 5700 5694 5689 5684 5679 5676 5673 5668 5662 5656 5650 5646 5642 5638 5633 5629 5625 5621 5616 5610 5604 5599 5595 5589
5735 5737 5735 5733 5732 5733 5734 5734 5731 5729 5728 5725 5723 5720 5717 5713 5708 5704 5700 5696 5689 5684 5681 5677 5672 5670 5668 5663 5657 5652 5648 5643 5638 5633 5630 5626 5622 5617 5612 5606 5601 5596 5591 5587
5720 5717 5717 5716 5717 5719 5720 5720 5717 5716 5715 5713 5710 5709 5705 5701 5696 5692 5689 5687 5683 5679 5675 5670 5666 5664 5660 5656 5651 5647 5644 5642 5635 5629 5626 5622 5617 5613 5607 5602 5598 5594 5589 5586
5713 5710 5709 5707 5706 5705 5706 5706 5704 5702 5701 5700 5699 5695 5690 5686 5682 5679 5678 5676 5674 5670 5667 5664 5660 5657 5653 5650 5645 5641 5637 5634 5631 5627 5623 5618 5614 5609 5605 5600 5596 5592 5588 5584
5700 5698 5696 5695 5694 5693 5692 5691 5691 5690 5690 5688 5685 5681 5678 5675 5672 5669 5668 5664 5661 5657 5656 5656 5651 5648 5645 5642 5637 5633 5629 5626 5623 5620 5617 5612 5607 5605 5601 5597 5593 5589 5586 5582
5684 5683 5682 5681 5681 5679 5678 5678 5678 5677 5677 5675 5672 5669 5665 5663 5661 5659 5656 5652 5651 5649 5649 5645 5642 5639 5637 5634 5628 5627 5624 5620 5617 5614 5610 5607 5603 5600 5597 5594 5590 5587 5584 5580
5668 5668 5667 5666 5665 5665 5665 5664 5664 5663 5662 5662 5658 5655 5653 5651 5650 5648 5644 5642 5641 5640 5638 5634 5631 5629 5626 5621 5618 5618 5615 5613 5610 5606 5603 5600 5597 5594 5591 5588 5586 5583 5581 5577
5654 5653 5652 5652 5651 5651 5652 5652 5651 5650 5650 5648 5646 5644 5642 5639 5638 5637 5635 5632 5631 5626 5625 5623 5620 5614 5611 5607 5608 5607 5606 5604 5601 5598 5596 5593 5590 5587 5585 5583 5580 5578 5577 5575
5640 5639 5638 5639 5638 5638 5640 5640 5640 5639 5638 5636 5634 5632 5630 5628 5626 5623 5621 5621 5619 5613 5611 5610 5604 5600 5597 5597 5598 5597 5596 5594 5591 5589 5587 5585 5583 5580 5578 5577 5575 5574 5571 5569
5628 5627 5627 5627 5628 5626 5625 5628 5629 5628 5627 5626 5625 5624 5621 5618 5616 5615 5612 5607 5604 5600 5599 5595 5590 5587 5584 5586 5587 5586 5585 5583 5581 5579 5577 5575 5574 5573 5571 5570 5569 5568 5566 5564
5616 5616 5615 5615 5614 5616 5617 5618 5618 5618 5617 5616 5615 5613 5611 5607 5603 5601 5598 5595 5590 5587 5587 5583 5579 5575 5574 5575 5575 5574 5573 5571 5569 5567 5567 5565 5564 5563 5562 5562 5562 5561 5560 5558
5606 5606 5607 5605 5605 5604 5606 5606 5605 5604 5603 5600 5599 5597 5594 5592 5589 5586 5583 5581 5578 5574 5572 5571 5569 5565 5564 5563 5562 5561 5559 5558 5557 5556 5556 5554 5553 5553 5553 5553 5553 5554 5554 5553
5598 5598 5597 5596 5598 5598 5597 5594 5592 5590 5588 5585 5582 5580 5578 5576 5573 5571 5568 5566 5563 5561 5559 5557 5556 5553 5551 5550 5548 5547 5545 5544 5544 5543 5543 5542 5542 5542 5543 5544 5545 5546 5546 5546